Wind_Speed
5 5 5 5 6 8 10 12 13 14 14 14 13 12 11 9 7 5 2 0 1 2 3 4 4 4 4 4 4 5 6 6 6 6 6 6 7 7 6 6 7 7 7 7 7 7 6 6 6
5 4 5 5 6 9 10 11 13 14 14 14 14 13 12 10 7 5 3 1 1 2 3 4 5 4 4 4 4 4 5 5 5 5 5 5 6 6 6 6 7 7 7 7 7 6 6 6 6
4 4 4 4 5 8 10 11 13 13 14 14 14 13 13 11 8 6 4 2 1 2 4 4 5 5 4 4 3 3 3 4 4 4 4 4 5 5 6 6 6 6 6 6 6 6 6 5 5
4 4 4 3 4 6 7 10 11 12 13 13 13 13 12 11 9 6 4 3 1 2 3 4 4 5 5 4 4 4 3 3 3 3 3 4 4 5 5 6 6 6 6 6 6 6 5 5 5
4 3 3 3 3 4 5 8 9 11 13 13 12 12 12 11 10 7 5 3 1 1 2 3 4 5 5 5 4 4 3 2 2 2 2 2 3 4 4 4 5 6 6 6 5 5 5 5 5
3 3 3 4 4 3 4 6 8 10 11 12 12 11 11 11 10 8 5 3 1 1 2 3 4 5 5 5 4 4 3 2 2 2 1 1 2 3 3 3 4 5 5 5 5 5 5 4 4
4 4 4 4 4 3 4 5 6 9 11 12 12 11 11 11 10 8 6 4 2 2 2 3 4 5 5 5 5 5 4 3 3 2 1 0 1 2 3 3 3 4 5 5 6 6 5 4 4
5 5 6 6 6 6 5 5 6 7 10 11 12 11 11 11 10 8 7 5 3 2 2 3 4 5 6 6 5 5 5 4 3 2 1 1 1 2 3 3 3 4 5 5 6 6 5 4 3
7 7 8 7 7 7 6 6 6 8 9 11 11 12 11 11 10 9 7 6 4 3 3 3 3 5 6 6 6 7 6 5 4 3 2 2 1 1 2 3 3 4 4 5 5 5 4 3 3
9 9 9 9 9 8 7 7 7 8 9 10 10 11 11 11 11 9 8 6 5 4 4 3 4 4 6 7 7 8 7 7 6 4 4 3 2 2 3 3 4 4 4 4 5 5 4 3 2
10 11 11 11 11 10 10 8 8 8 9 10 11 11 11 12 11 10 8 7 6 5 5 5 4 5 7 8 8 9 9 8 8 6 5 4 3 3 3 4 4 4 4 4 5 5 4 3 2
11 12 13 12 12 12 12 11 10 8 8 9 10 12 12 12 12 10 8 8 6 6 6 6 6 7 7 9 10 10 10 11 10 9 7 7 5 4 4 5 5 4 4 4 4 4 3 2 1
12 13 13 13 13 13 13 12 10 8 8 9 10 11 11 12 11 9 9 9 8 7 7 8 8 9 9 10 11 11 12 12 12 11 10 9 7 6 6 6 6 5 4 4 4 4 3 2 2
13 13 13 13 14 14 14 13 11 9 8 8 9 10 11 11 10 10 10 10 9 9 10 10 10 10 11 11 12 13 13 14 14 13 12 11 9 8 7 7 6 6 5 4 4 3 2 2 2
13 13 13 14 15 15 14 12 11 9 8 8 9 10 9 10 10 11 11 11 11 11 12 12 11 11 12 13 14 14 14 15 15 13 14 13 11 9 8 8 7 6 5 4 3 2 1 1 1
14 13 14 15 16 16 14 12 11 10 8 8 9 9 10 10 11 12 12 12 12 12 12 13 12 13 13 11 13 15 16 16 16 15 15 14 13 11 10 9 8 7 6 5 4 3 2 2 2
14 14 15 16 16 17 15 13 11 10 9 9 10 10 12 12 12 13 13 13 13 12 12 12 12 12 12 13 13 14 15 16 17 16 16 16 15 13 11 10 9 8 7 6 5 4 3 3 3
16 15 15 16 16 16 15 12 11 10 9 9 10 11 13 13 12 12 13 13 14 14 13 11 10 9 11 12 13 14 13 15 16 16 17 18 16 14 12 11 10 9 8 7 6 6 5 5 4
17 16 15 16 17 16 15 14 12 11 10 10 10 12 12 12 13 13 13 13 13 13 12 10 10 10 10 12 14 14 14 14 16 17 18 19 18 15 13 13 12 10 9 8 7 7 7 6 6
17 16 16 17 18 17 16 15 13 12 11 12 11 11 12 13 13 13 14 14 14 13 12 11 9 8 8 11 14 15 15 15 16 17 18 19 18 17 15 15 14 12 11 10 9 8 8 8 7
17 16 17 18 20 19 18 16 14 14 13 12 12 12 13 14 14 15 15 15 16 15 13 11 8 7 7 9 12 15 15 16 17 18 19 19 18 17 15 16 16 14 13 11 10 9 9 9 8
17 17 19 20 21 21 20 17 15 14 13 12 12 12 13 14 14 15 15 15 15 14 11 8 7 7 7 9 11 13 15 16 17 18 20 20 19 18 16 16 16 15 14 12 11 10 10 10 9
18 20 20 21 22 21 20 19 15 15 14 13 12 12 13 13 14 14 14 14 13 11 8 7 8 7 7 7 10 12 15 17 17 18 19 20 20 18 17 16 16 16 15 13 12 11 11 10 10
20 21 22 21 22 21 19 19 16 14 14 13 13 13 13 12 12 12 12 12 12 10 9 8 7 7 7 8 10 11 13 16 18 19 19 20 19 18 17 17 16 17 15 14 14 13 12 12 11
21 21 22 22 22 20 18 18 16 14 14 13 12 12 12 10 10 10 11 12 11 11 10 9 8 7 7 8 10 12 14 16 17 20 20 20 20 19 18 17 17 17 16 16 15 14 14 14 13
20 21 22 22 20 18 18 17 14 13 11 11 11 10 10 10 9 10 10 11 11 11 11 9 9 8 7 8 10 12 14 16 17 19 21 21 21 21 20 19 18 18 18 17 17 16 16 15 15
21 21 21 21 19 18 17 15 13 12 10 10 9 8 9 9 9 10 10 11 12 12 11 9 9 8 8 8 10 11 13 15 17 19 21 22 22 21 21 20 19 19 18 18 17 17 17 17 17
22 21 21 20 19 17 15 14 12 12 12 10 10 10 10 10 11 11 11 12 13 13 12 10 9 8 9 10 11 12 13 15 16 18 19 22 22 22 22 21 21 20 20 19 18 18 18 18 18
21 21 21 20 19 18 16 13 12 12 12 11 11 12 12 12 12 12 12 13 13 13 12 11 10 9 9 9 10 11 13 15 16 16 18 20 21 22 22 22 22 22 21 20 20 20 20 20 20
22 20 19 19 19 18 17 14 14 14 13 12 12 12 13 13 13 14 13 12 12 12 11 10 9 9 9 9 10 10 10 12 13 14 17 19 21 22 22 22 23 23 22 22 22 22 22 22 22
Wind_Direction
39 34 28 24 36 37 44 50 51 50 46 43 40 36 35 37 33 27 11 323 202 202 188 186 186 174 160 144 122 106 99 89 79 67 61 55 48 41 37 37 35 35 34 34 33 33 35 36 37
30 19 11 15 23 28 37 45 51 49 43 41 38 33 31 29 26 24 15 359 267 216 200 197 194 183 172 155 133 112 104 94 83 71 62 56 47 40 36 36 36 35 33 29 27 27 29 31 33
9 360 355 5 21 31 38 45 47 47 43 39 36 33 27 23 20 16 12 6 299 232 215 203 199 193 185 173 154 132 114 101 90 76 66 59 51 44 38 35 34 34 31 26 23 21 24 26 29
358 349 341 349 13 28 35 39 46 49 41 37 34 29 22 18 14 9 4 1 324 234 216 212 201 194 188 179 167 149 126 112 100 83 73 64 53 45 37 32 32 31 26 22 19 17 20 22 23
352 352 346 337 354 12 20 34 39 41 39 33 30 25 19 14 8 5 6 5 323 209 212 214 197 191 186 182 172 162 147 137 123 101 82 66 47 38 32 29 28 26 21 17 15 15 17 18 18
329 331 330 327 331 346 15 26 29 33 36 33 31 25 19 13 8 5 5 3 353 231 214 200 191 193 187 186 185 178 177 172 159 138 105 72 36 27 26 23 22 20 14 10 7 5 10 13 13
306 308 303 311 314 329 352 9 26 31 35 31 27 21 17 11 6 2 359 351 331 283 239 212 201 199 197 196 195 194 197 196 193 178 165 26 21 16 8 8 12 11 5 1 357 357 2 4 5
293 286 287 292 299 316 333 345 5 20 30 23 18 12 9 6 2 359 351 340 324 296 258 212 207 208 203 201 203 204 206 201 200 214 237 264 333 347 346 348 352 357 354 353 352 350 349 349 357
292 283 284 288 296 311 315 330 348 11 13 17 12 7 1 359 356 352 347 337 321 302 273 235 220 207 203 203 207 210 214 210 209 218 231 242 286 319 328 333 335 338 342 344 344 344 341 338 344
290 284 285 287 290 298 309 322 340 358 2 7 6 0 355 352 348 343 338 332 320 303 281 250 229 214 205 208 210 214 218 215 216 218 228 234 253 280 306 316 316 321 331 334 334 332 331 330 326
286 281 287 289 289 293 299 309 322 340 351 2 358 350 345 345 341 335 329 324 316 300 287 268 252 235 218 215 216 217 221 220 222 221 225 230 249 264 281 290 295 302 316 325 327 326 323 324 322
281 281 286 288 290 290 292 299 308 321 337 347 348 341 338 336 332 328 324 321 314 300 287 277 265 253 239 229 224 223 225 224 225 223 226 229 240 249 263 275 280 286 301 312 317 320 318 318 315
283 282 285 285 285 285 285 289 298 307 325 335 341 336 330 327 327 327 325 320 312 298 287 283 272 260 248 234 227 223 226 229 229 226 227 229 233 239 249 262 268 273 284 298 305 310 311 305 294
283 282 281 279 280 280 278 284 294 298 310 323 331 328 327 321 324 327 323 316 307 297 288 283 272 261 250 239 233 227 226 228 227 226 226 226 229 234 242 253 263 265 272 284 290 296 290 292 289
280 278 273 271 272 272 274 279 290 293 301 318 323 322 321 321 324 324 322 316 306 300 291 282 274 264 255 243 234 228 227 227 224 226 226 224 225 230 237 249 257 257 261 268 272 279 254 263 264
275 271 263 265 266 266 270 274 279 287 298 308 316 319 322 321 322 322 317 313 303 298 293 279 272 262 254 245 239 231 228 225 224 226 224 221 222 225 233 242 250 253 251 253 252 250 232 228 238
270 266 262 262 263 265 270 272 273 279 294 301 311 320 326 323 318 318 316 312 305 300 297 283 273 263 251 248 242 231 224 224 226 225 220 219 221 224 231 237 242 245 247 246 244 238 229 222 224
265 263 259 258 259 263 269 270 270 275 287 299 308 317 323 321 317 316 315 314 312 303 297 288 273 256 249 246 239 228 223 221 219 219 219 220 221 225 230 233 234 236 241 240 240 231 226 222 222
263 260 254 250 254 260 265 267 268 272 284 296 305 315 320 321 319 316 316 315 311 306 302 293 280 259 251 238 231 226 224 223 220 219 219 220 222 227 231 230 230 231 234 232 233 231 227 225 225
259 255 247 243 249 256 259 262 269 275 285 294 304 313 316 317 316 315 313 312 312 309 300 292 289 275 252 236 228 225 224 223 219 220 220 220 222 226 229 228 227 227 231 231 232 233 230 228 227
256 251 242 240 247 255 259 263 272 277 283 293 301 305 304 306 308 309 308 309 309 305 300 296 292 278 258 243 230 229 225 223 219 217 219 220 221 223 226 228 228 228 230 229 230 233 231 228 226
249 244 240 241 247 253 261 265 271 276 281 291 300 302 299 300 303 305 306 306 306 304 299 286 293 274 260 246 234 230 224 224 220 218 219 219 220 221 227 228 225 225 227 228 230 232 231 227 224
242 241 242 244 249 255 261 266 270 275 282 291 296 302 302 296 295 302 302 303 305 308 311 297 290 276 255 248 240 230 223 223 222 219 216 216 218 223 225 225 223 224 226 228 230 231 230 226 223
240 241 244 247 252 256 263 269 274 277 282 288 292 294 299 294 292 300 302 301 305 307 310 301 288 279 261 250 241 231 223 223 222 221 217 217 219 221 222 224 225 226 226 228 230 233 233 230 227
240 241 244 248 253 257 262 267 274 281 286 286 285 290 293 290 293 297 298 304 306 305 301 299 292 278 262 252 242 233 224 220 220 220 219 219 220 222 222 223 225 225 225 227 230 234 235 232 232
241 241 243 249 254 256 259 265 273 277 285 286 282 286 286 286 290 295 303 308 311 309 302 299 292 272 261 253 244 236 227 223 222 221 220 220 220 222 223 225 226 227 227 230 234 235 237 236 235
234 237 243 248 253 255 259 264 266 266 276 286 282 282 284 285 288 297 308 311 314 316 309 303 296 281 267 254 239 236 233 228 226 222 220 221 222 222 224 227 229 229 229 233 234 236 239 239 239
233 236 240 246 250 254 257 260 261 266 275 279 279 283 287 287 291 297 303 311 311 313 310 300 296 288 274 260 248 243 236 232 229 227 224 223 224 225 228 230 229 230 232 236 238 240 240 241 242
232 235 240 245 250 255 259 260 262 265 275 278 282 286 289 287 291 292 296 306 308 313 311 302 297 287 274 262 257 247 237 232 227 228 226 225 224 227 230 231 231 232 234 236 241 243 244 245 245
231 235 241 246 252 258 260 259 261 267 273 275 281 284 288 288 290 290 291 303 307 311 311 303 301 292 283 269 259 244 230 226 227 228 229 229 229 230 233 234 234 235 236 238 243 246 248 250 250
Height
5879 5878 5879 5880 5880 5879 5877 5877 5875 5874 5874 5874 5874 5873 5874 5874 5875 5876 5875 5873 5873 5874 5874 5875 5876 5877 5878 5879 5880 5881 5882 5883 5884 5885 5885 5886 5887 5887 5887 5887 5887 5887 5887 5887 5887 5887 5887 5887 5886
5880 5880 5881 5881 5880 5880 5880 5878 5877 5876 5876 5874 5874 5874 5874 5874 5874 5874 5873 5873 5873 5874 5874 5875 5876 5877 5878 5879 5880 5881 5882 5883 5884 5885 5886 5886 5887 5887 5888 5888 5888 5888 5888 5888 5887 5887 5887 5887 5887
5880 5881 5882 5882 5881 5881 5880 5879 5878 5878 5877 5875 5875 5875 5874 5874 5874 5873 5873 5873 5873 5874 5874 5875 5876 5877 5878 5879 5880 5881 5882 5883 5884 5885 5885 5886 5887 5887 5888 5888 5888 5888 5888 5888 5888 5888 5888 5887 5887
5881 5882 5882 5882 5881 5881 5881 5880 5879 5879 5878 5877 5876 5876 5875 5875 5874 5873 5873 5873 5873 5874 5874 5875 5875 5876 5877 5878 5879 5880 5881 5882 5883 5884 5885 5886 5887 5887 5887 5888 5888 5888 5889 5888 5888 5888 5888 5888 5888
5882 5882 5882 5882 5882 5882 5881 5880 5880 5879 5878 5878 5877 5876 5876 5875 5874 5873 5873 5873 5873 5873 5874 5874 5875 5876 5877 5878 5879 5880 5881 5882 5883 5884 5885 5886 5886 5887 5887 5888 5888 5889 5889 5889 5889 5889 5889 5888 5888
5882 5882 5882 5881 5882 5882 5881 5881 5880 5880 5879 5878 5877 5877 5876 5876 5875 5874 5874 5873 5873 5873 5874 5874 5875 5875 5876 5877 5879 5880 5881 5882 5883 5884 5885 5885 5886 5887 5887 5888 5888 5889 5889 5889 5889 5889 5889 5888 5888
5883 5882 5882 5881 5881 5881 5881 5881 5880 5880 5879 5878 5878 5877 5877 5876 5875 5874 5874 5874 5873 5873 5873 5874 5874 5875 5876 5877 5878 5879 5880 5882 5882 5884 5884 5885 5886 5887 5887 5888 5888 5888 5889 5889 5889 5889 5889 5888 5888
5882 5882 5881 5881 5880 5881 5881 5880 5880 5880 5879 5879 5878 5877 5877 5877 5875 5874 5874 5873 5873 5873 5873 5873 5873 5874 5875 5876 5877 5879 5880 5881 5882 5883 5884 5885 5886 5886 5887 5888 5888 5888 5889 5889 5889 5889 5889 5888 5888
5881 5882 5880 5880 5880 5880 5880 5880 5880 5880 5879 5879 5878 5878 5877 5876 5875 5874 5873 5873 5872 5872 5872 5872 5872 5873 5874 5875 5877 5878 5879 5881 5882 5883 5884 5884 5885 5886 5887 5887 5888 5888 5888 5889 5889 5889 5888 5888 5888
5879 5880 5880 5880 5880 5879 5879 5879 5879 5879 5879 5878 5878 5877 5876 5876 5875 5874 5873 5872 5872 5872 5872 5871 5872 5872 5873 5874 5876 5877 5878 5880 5881 5882 5883 5884 5885 5886 5886 5887 5888 5888 5888 5888 5888 5888 5888 5888 5888
5878 5878 5878 5878 5878 5878 5878 5878 5878 5878 5878 5877 5877 5876 5876 5875 5874 5873 5872 5872 5871 5871 5871 5870 5871 5871 5872 5873 5874 5876 5877 5878 5880 5881 5882 5883 5884 5885 5886 5887 5887 5888 5888 5888 5888 5888 5888 5888 5888
5877 5876 5876 5877 5877 5877 5877 5877 5878 5877 5877 5877 5876 5875 5875 5874 5873 5872 5871 5871 5870 5869 5869 5869 5869 5870 5870 5871 5872 5874 5875 5877 5878 5879 5881 5882 5883 5884 5885 5886 5886 5887 5888 5888 5888 5888 5888 5888 5888
5875 5875 5875 5875 5875 5876 5876 5876 5876 5876 5876 5875 5875 5874 5874 5873 5872 5871 5870 5869 5868 5868 5867 5867 5867 5867 5868 5869 5870 5872 5873 5875 5876 5878 5879 5881 5882 5883 5884 5885 5886 5886 5887 5887 5888 5887 5887 5888 5888
5873 5873 5873 5874 5873 5874 5874 5875 5875 5875 5875 5875 5874 5874 5872 5871 5870 5869 5868 5867 5866 5866 5865 5865 5865 5865 5865 5866 5867 5869 5871 5872 5874 5876 5877 5879 5880 5882 5883 5884 5885 5886 5886 5887 5887 5887 5887 5887 5888
5871 5871 5872 5872 5872 5872 5873 5873 5874 5874 5874 5874 5873 5872 5871 5870 5869 5867 5866 5865 5864 5863 5862 5862 5861 5861 5862 5863 5864 5865 5867 5869 5871 5873 5875 5877 5879 5880 5882 5883 5884 5885 5885 5886 5886 5887 5887 5887 5888
5869 5869 5870 5870 5870 5869 5872 5872 5873 5872 5873 5873 5872 5871 5870 5868 5867 5865 5863 5862 5860 5859 5858 5858 5858 5858 5858 5859 5860 5862 5864 5866 5868 5870 5873 5875 5877 5879 5880 5882 5883 5883 5884 5885 5885 5886 5887 5887 5888
5866 5866 5867 5867 5867 5867 5869 5870 5870 5870 5871 5871 5871 5870 5868 5867 5865 5863 5861 5859 5857 5856 5855 5854 5854 5854 5855 5856 5857 5859 5860 5862 5865 5868 5870 5873 5875 5877 5879 5880 5881 5882 5883 5884 5884 5885 5886 5887 5888
5863 5863 5864 5865 5865 5866 5866 5867 5868 5868 5869 5869 5869 5868 5866 5865 5863 5861 5859 5857 5855 5854 5853 5851 5851 5851 5852 5853 5854 5855 5857 5860 5862 5865 5868 5871 5873 5875 5877 5879 5880 5881 5882 5883 5884 5884 5885 5886 5887
5860 5861 5862 5863 5863 5863 5864 5865 5866 5866 5866 5867 5866 5865 5864 5862 5861 5859 5857 5856 5854 5852 5851 5849 5849 5848 5848 5849 5850 5853 5855 5857 5860 5862 5865 5868 5871 5873 5875 5877 5878 5880 5881 5882 5883 5884 5885 5886 5886
5857 5858 5859 5860 5860 5861 5862 5863 5863 5864 5864 5864 5864 5862 5861 5860 5859 5857 5855 5854 5852 5850 5848 5847 5846 5845 5845 5846 5848 5850 5852 5854 5857 5859 5862 5865 5868 5870 5872 5875 5877 5878 5880 5881 5882 5883 5884 5885 5885
5854 5855 5856 5857 5858 5858 5860 5861 5861 5861 5862 5862 5861 5860 5859 5857 5856 5855 5853 5852 5849 5847 5846 5845 5844 5843 5843 5843 5845 5847 5849 5851 5854 5857 5860 5863 5865 5868 5870 5872 5874 5876 5878 5879 5880 5881 5882 5883 5884
5850 5852 5853 5854 5855 5856 5857 5858 5859 5859 5859 5859 5858 5857 5856 5855 5854 5853 5851 5849 5847 5845 5843 5842 5842 5841 5841 5841 5842 5844 5846 5849 5851 5854 5857 5860 5863 5866 5868 5870 5872 5874 5876 5877 5879 5880 5881 5882 5883
5847 5848 5849 5850 5851 5853 5854 5855 5857 5856 5856 5856 5856 5855 5853 5852 5851 5850 5848 5847 5846 5843 5841 5841 5840 5839 5839 5839 5840 5842 5844 5846 5849 5851 5854 5857 5860 5863 5865 5868 5870 5872 5874 5875 5877 5878 5880 5881 5882
5843 5844 5846 5847 5849 5850 5852 5852 5853 5853 5853 5853 5853 5852 5850 5849 5849 5848 5846 5845 5844 5842 5840 5839 5839 5837 5836 5837 5838 5840 5842 5844 5846 5849 5852 5855 5858 5860 5863 5865 5867 5869 5871 5873 5875 5876 5878 5879 5880
5839 5842 5843 5844 5846 5847 5848 5849 5851 5850 5850 5849 5849 5849 5848 5847 5847 5846 5845 5844 5842 5840 5838 5837 5836 5835 5835 5835 5836 5837 5839 5841 5844 5846 5849 5852 5855 5858 5860 5863 5865 5867 5868 5870 5872 5874 5875 5877 5878
5836 5838 5840 5842 5843 5844 5845 5846 5848 5847 5847 5847 5847 5847 5846 5846 5845 5844 5844 5842 5841 5839 5837 5835 5834 5834 5833 5833 5833 5834 5836 5838 5841 5843 5846 5849 5852 5855 5857 5860 5862 5864 5866 5868 5869 5871 5873 5874 5875
5832 5834 5837 5838 5839 5841 5841 5843 5844 5845 5845 5845 5844 5844 5844 5844 5843 5843 5842 5840 5839 5837 5835 5833 5832 5831 5831 5831 5831 5832 5833 5835 5837 5840 5843 5846 5849 5851 5854 5857 5859 5861 5862 5864 5866 5868 5869 5871 5872
5829 5831 5833 5834 5836 5837 5839 5840 5842 5842 5842 5842 5842 5842 5842 5842 5841 5841 5840 5838 5837 5835 5833 5832 5830 5829 5828 5828 5829 5829 5831 5832 5834 5836 5839 5842 5845 5848 5851 5853 5855 5857 5859 5861 5863 5864 5866 5867 5868
5825 5827 5829 5831 5832 5834 5835 5839 5839 5839 5840 5840 5840 5840 5840 5839 5839 5838 5837 5836 5835 5833 5831 5829 5828 5827 5826 5826 5826 5826 5827 5829 5831 5833 5836 5838 5841 5844 5846 5849 5851 5853 5855 5857 5859 5860 5862 5863 5864
5820 5823 5826 5828 5829 5830 5832 5837 5835 5836 5837 5837 5837 5837 5837 5837 5837 5836 5835 5833 5832 5831 5828 5827 5826 5825 5824 5823 5823 5824 5824 5826 5828 5830 5832 5835 5837 5840 5842 5845 5847 5849 5851 5853 5854 5856 5857 5859 5860